Home > Weather > Santa Barbara > Past weeks

Flag for USA Past Weather in Santa Barbara, California, USA — Yesterday and Last 2 Weeks

Now
69 °F

Sunny.


Feels Like: 69 °F
Forecast: 58 / 70 °F
Wind: 8 mph from West

Location: Santa Barbara Municipal Airport

Current Time: Jul 1, 2016 at 3:43:05 PM

Latest Report: Jul 1, 2016 at 2:53 PM


Visibility: 10 mi

Pressure: 29.91 "Hg

Humidity: 73%

Dew Point: 60 °F

Location of Santa BarbaraLocation

Past Weather in Santa Barbara — Graph

°F

Santa Barbara Temperature Yesterday

Maximum temperature yesterday: 72 °F (at 3:53 PM)
Minimum temperature yesterday: 59 °F (at 5:53 AM)
Average temperature yesterday: 65 °F

High & Low Weather Summary for the Past Weeks

 TemperatureHumidityPressure
High86 °F (Jun 20, 3:53 PM)100% (Jun 22, 12:53 AM)30.05 "Hg (Jun 22, 12:53 AM)
Low52 °F (Jun 17, 5:53 AM)33% (Jun 20, 3:53 PM)29.79 "Hg (Jun 30, 6:53 PM)
Average64 °F82%29.91 "Hg
* Reported Jun 16 1:53 PM — Jul 1 1:53 PM, Santa Barbara, Weather by CustomWeather, © 2016

Note: Actual official high and low records may vary slightly from our data, if they occured in-between our weather recording intervals... More about our weather records

Advertising

Santa Barbara Weather History for the Previous 24 Hours

Scroll right to see more
 ConditionsComfort  
Time TempWeatherWind HumidityBarometerVisibility
1:53 PM
Fri, Jul 1
69 °FScattered clouds.9 mph73%29.92 "Hg10 mi
12:53 PM68 °FOvercast.8 mph76%29.94 "Hg10 mi
11:53 AM65 °FOvercast.9 mph81%29.93 "Hg10 mi
10:53 AM64 °FOvercast.8 mph84%29.93 "Hg9 mi
9:53 AM64 °FOvercast.8 mph87%29.93 "Hg9 mi
8:53 AM65 °FOvercast.No wind81%29.91 "Hg10 mi
7:53 AM63 °FLow clouds.6 mph84%29.91 "Hg10 mi
7:00 AM61 °FOvercast.7 mph90%29.90 "Hg10 mi
5:53 AM59 °FLow clouds.5 mph93%29.90 "Hg8 mi
4:53 AM59 °FLow clouds.No wind93%29.88 "Hg9 mi
3:53 AM58 °FMostly cloudy.6 mph93%29.88 "Hg8 mi
2:53 AM59 °FLow clouds.7 mph93%29.88 "Hg8 mi
1:53 AM59 °FLow clouds.5 mph93%29.87 "Hg8 mi
12:53 AM59 °FLow clouds.7 mph93%29.87 "Hg7 mi
11:53 PM
Thu, Jun 30
60 °FLow clouds.9 mph93%29.87 "Hg7 mi
10:53 PM61 °FLow clouds.10 mph90%29.86 "Hg7 mi
9:53 PM61 °FClear.7 mph90%29.84 "Hg8 mi
8:53 PM63 °FSunny.7 mph87%29.81 "Hg8 mi
7:53 PM65 °FSunny.No wind81%29.80 "Hg8 mi
6:53 PM69 °FSunny.3 mph68%29.79 "Hg10 mi
5:53 PM71 °FSunny.3 mph61%29.80 "Hg10 mi
4:53 PM71 °FSunny.8 mph59%29.82 "Hg10 mi
3:53 PM72 °FSunny.9 mph57%29.85 "Hg10 mi
Weather by CustomWeather, © 2016

See weather overviewHow to use our weather pages